Weather in Burtsevka

Russia / Kursk Oblast     51°25′09″N   37°25′33″E
temp.,
°C
wind,
m/s
gust,
m/s
humid.,
%
clouds,
%
prec.,
mm/h
press.,
hPa
HPBL,
m
16 september, thu
thu1600:00+9nw33595 0.0 101639
03:00+7nw35660 0.0 101784
06:00+6nnw38765 0.0 1018149
09:00+11n56530 0.0 1019630
12:00+15nnw45375 0.0 10191424
15:00+16nnw44310 0.0 10181588
18:00+14nnw34400 0.0 101883
21:00+9n22530 0.0 101911
17 september, fri
fri1700:00+8nne1156100 0.0 101910
03:00+7n1160100 0.0 101910
06:00+6ssw116259 0.0 101910
09:00+12s114594 0.0 1018305
12:00+17ssw2334100 0.0 10171360
15:00+14nnw6547100 0.1 1016365
18:00+10ne4582100 0.8 1017174
21:00+9ene3591100 3.0 1017209
18 september, sat
sat1800:00+9ene4793100 2.8 1017285
03:00+9e4894100 5.5 1018494
06:00+8e51094100 3.7 1018436
09:00+8e71293100 6.8 1018472
12:00+8ese61193100 3.6 1019526
15:00+8ese71394100 10.1 1018461
18:00+8ese71394100 0.9 1018458
21:00+9e91793100 2.0 1017516
19 september, sun
sun1900:00+8ese81693100 3.6 1017559
03:00+8e71692100 5.4 1017585
06:00+9ese81492100 1.1 1016603
09:00+8ese81595100 8.3 1015564
12:00+9ese71493100 2.5 1014709
15:00+9ese61194100 4.7 1012595
18:00+9e3697100 0.6 1012312
21:00+10ne1198100 0.6 101147
20 september, mon
mon2000:00+10n2397100 0.0 1010115
03:00+10n2297100 0.0 100994
06:00+10n2397100 0.0 1009105
09:00+11ne1297100 0.1 1008174
12:00+14ese2489100 0.3 1008475
15:00+15se128898 0.5 1007255
18:00+14w3492100 0.1 1008166
21:00+12wsw249798 0.4 1009152